Weather History for Dunkirk, NY

Change the Weather History Date:

Friday, December 7, 2012

  Actual Average Record
Temperature  
Mean Temperature 44 °F -  
Max Temperature 46 °F 40 °F 70 °F (1998)
Min Temperature 41 °F 28 °F 0 °F (1926)
Degree Days  
Heating Degree Days 22    
Moisture  
Dew Point 36 °F    
Average Humidity 78    
Maximum Humidity 96    
Minimum Humidity 47    
Precipitation  
Precipitation 0.01 in - - ()
Sea Level Pressure  
Sea Level Pressure 29.97 in    
Wind  
Wind Speed 8 mph (South)    
Max Wind Speed 13 mph    
Max Gust Speed 20 mph    
Visibility 9 miles    
Events Rain    
Averages and records for this station are not official NWS values.
T = Trace of Precipitation, MM = Missing Value Source: NWS Daily Summary

Daily Weather History Graph

Daily Weather History Graph

Search for Another Location

Airport:

Trip Planner

Search our weather history database for the weather conditions in past years. The results will help you decide how hot, cold, wet, or windy it might be!

Date:

Astronomy

Dec. 07, 2012 Rise Set
Actual Time 7:33 AM EST 4:43 PM EST
Civil Twilight 7:01 AM EST 5:15 PM EST
Nautical Twilight 6:26 AM EST 5:51 PM EST
Astronomical Twilight 5:52 AM EST 6:25 PM EST
Moon 12:43 AM EST (12/7) 12:46 PM EST (12/7)
Length of Visible Light 10h 14m
Length of Day
9h 10m
Last Quarter, 39% of the Moon is Illuminated
Dec 7
Last Quarter
Dec 13
New
Dec 20
First Quarter
Dec 28
Full
Jan 4
Last Quarter

Hourly Weather History & Observations

Time (EST) Temp. Windchill Dew Point Humidity Pressure Visibility Wind Dir Wind Speed Gust Speed Precip Events Conditions
12:53 AM 41.0 °F 33.9 °F 21.9 °F 47% 30.01 in 10.0 mi South 12.7 mph - N/A   Clear
1:53 AM 41.0 °F 34.3 °F 23.0 °F 49% 30.01 in 10.0 mi SSW 11.5 mph - N/A   Clear
2:53 AM 41.0 °F 33.9 °F 24.1 °F 51% 30.02 in 10.0 mi South 12.7 mph 19.6 mph N/A   Clear
3:53 AM 41.0 °F 34.7 °F 25.0 °F 53% 30.00 in 10.0 mi South 10.4 mph - N/A   Clear
4:53 AM 41.0 °F 34.7 °F 27.0 °F 57% 29.99 in 10.0 mi SSW 10.4 mph - N/A   Scattered Clouds
5:53 AM 42.1 °F 37.1 °F 28.9 °F 60% 29.97 in 10.0 mi South 8.1 mph - N/A   Overcast
6:53 AM 42.1 °F 35.7 °F 30.9 °F 65% 29.98 in 10.0 mi South 11.5 mph - N/A   Scattered Clouds
7:53 AM 42.1 °F 36.1 °F 33.1 °F 70% 29.98 in 10.0 mi SSW 10.4 mph - N/A   Overcast
8:53 AM 43.0 °F 37.2 °F 35.1 °F 74% 29.99 in 10.0 mi South 10.4 mph - N/A   Overcast
9:53 AM 43.0 °F 38.2 °F 37.0 °F 80% 29.98 in 10.0 mi South 8.1 mph - 0.00 in Rain Light Rain
10:53 AM 44.1 °F 39.5 °F 37.9 °F 79% 29.99 in 10.0 mi SSW 8.1 mph - 0.00 in   Overcast
11:53 AM 44.1 °F 39.5 °F 39.0 °F 82% 29.98 in 10.0 mi SSW 8.1 mph - N/A   Overcast
12:53 PM 46.0 °F 42.5 °F 39.9 °F 79% 29.96 in 10.0 mi South 6.9 mph - N/A   Overcast
1:11 PM 46.4 °F 41.9 °F 39.2 °F 76% 29.94 in 10.0 mi SSW 9.2 mph - N/A   Overcast
1:53 PM 46.0 °F 41.9 °F 39.9 °F 79% 29.94 in 10.0 mi South 8.1 mph - N/A   Overcast
2:53 PM 45.0 °F 41.2 °F 39.9 °F 82% 29.94 in 10.0 mi South 6.9 mph - N/A   Overcast
3:53 PM 45.0 °F 42.6 °F 39.9 °F 82% 29.96 in 10.0 mi South 4.6 mph - N/A   Overcast
4:10 PM 44.6 °F 42.2 °F 39.2 °F 81% 29.94 in 10.0 mi South 4.6 mph - N/A   Overcast
4:53 PM 45.0 °F 42.6 °F 39.9 °F 82% 29.96 in 10.0 mi South 4.6 mph - N/A   Overcast
5:53 PM 44.1 °F - 39.9 °F 85% 29.97 in 10.0 mi Calm Calm - N/A   Overcast
6:53 PM 44.1 °F - 39.9 °F 85% 29.97 in 10.0 mi Calm Calm - N/A   Overcast
7:53 PM 43.0 °F - 39.9 °F 89% 29.97 in 10.0 mi Calm Calm - N/A   Overcast
8:11 PM 42.8 °F - 39.2 °F 87% 29.95 in 10.0 mi Calm Calm - N/A   Overcast
8:24 PM 42.8 °F 41.1 °F 39.2 °F 87% 29.95 in 10.0 mi SSE 3.5 mph - N/A   Overcast
8:36 PM 42.8 °F - 39.2 °F 87% 29.95 in 10.0 mi Calm Calm - N/A   Overcast
8:53 PM 43.0 °F - 39.9 °F 89% 29.96 in 10.0 mi Calm Calm - N/A   Overcast
9:53 PM 42.1 °F - 41.0 °F 96% 29.95 in 8.0 mi Calm Calm - 0.00 in   Overcast
10:16 PM 42.8 °F - 41.0 °F 93% 29.93 in 6.0 mi Calm Calm - N/A   Overcast
10:44 PM 42.8 °F - 41.0 °F 93% 29.92 in 5.0 mi Calm Calm - 0.00 in Rain Light Rain
10:53 PM 42.1 °F - 41.0 °F 96% 29.94 in 5.0 mi Calm Calm - 0.00 in Rain Light Rain
11:53 PM 42.1 °F - 41.0 °F 96% 29.92 in 4.0 mi Calm Calm - 0.01 in Rain Light Rain